| time (UTC) | temp F | wind direction | speed knots | gust knots | rain 1hr in | rain 24hr in | rain mn in | humidity % | barometer mb |
| 20260505031530 | 55 | 127 | 4.3 | 12.2 | 0.00 | 0.00 | 0.00 | 74 | 1008.4 |
| 20260505030024 | 55 | 163 | 6.1 | 13.9 | 0.00 | 0.00 | 0.00 | 74 | 1008.3 |
| 20260505024523 | 55 | 270 | 4.3 | 10.4 | 0.00 | 0.00 | 0.00 | 75 | 1008.3 |
| 20260505023023 | 54 | 157 | 3.5 | 11.3 | 0.00 | 0.00 | 0.00 | 77 | 1008.3 |
| 20260505021523 | 53 | 159 | 3.5 | 10.4 | 0.00 | 0.00 | 0.00 | 79 | 1008.2 |
| 20260505020019 | 53 | 191 | 2.6 | 11.3 | 0.00 | 0.00 | 0.00 | 80 | 1008.2 |
| 20260505014522 | 52 | 123 | 5.2 | 12.2 | 0.00 | 0.00 | 0.00 | 82 | 1008.1 |
| 20260505013017 | 51 | 142 | 5.2 | 13.0 | 0.00 | 0.00 | 0.00 | 84 | 1007.8 |
| 20260505011515 | 50 | 160 | 5.2 | 13.0 | 0.00 | 0.00 | 0.00 | 85 | 1007.6 |
| 20260505010015 | 50 | 134 | 2.6 | 9.6 | 0.00 | 0.00 | 0.00 | 84 | 1007.4 |
| 20260505004512 | 50 | 128 | 3.5 | 9.6 | 0.00 | 0.00 | 0.00 | 84 | 1007.3 |
| 20260505003010 | 50 | 209 | 4.3 | 11.3 | 0.00 | 0.00 | 0.00 | 85 | 1007.0 |
| 20260505001509 | 49 | 165 | 1.7 | 4.3 | 0.00 | 0.00 | 0.00 | 86 | 1007.0 |
| 20260505000045 | 48 | 113 | 0.0 | 2.6 | 0.00 | 0.00 | 0.00 | 87 | 1006.9 |
| 20260504234536 | 48 | 144 | 0.0 | 1.7 | 0.00 | 0.00 | 0.00 | 86 | 1006.8 |
| 20260504233034 | 50 | 118 | 0.0 | 0.9 | 0.00 | 0.00 | 0.00 | 84 | 1006.6 |
| 20260504231535 | 51 | 102 | 0.0 | 1.7 | 0.00 | 0.00 | 0.00 | 82 | 1006.5 |
| 20260504230032 | 52 | 42 | 0.0 | 0.9 | 0.00 | 0.00 | 0.00 | 81 | 1006.3 |
| 20260504224535 | 52 | 124 | 0.0 | 4.3 | 0.00 | 0.00 | 0.00 | 82 | 1006.2 |
| 20260504223031 | 53 | 135 | 0.0 | 0.0 | 0.00 | 0.00 | 0.00 | 81 | 1006.1 |
| 20260504221529 | 53 | 134 | 0.0 | 0.0 | 0.00 | 0.00 | 0.00 | 81 | 1005.9 |
| 20260504220028 | 53 | 115 | 0.0 | 3.5 | 0.00 | 0.00 | 0.00 | 81 | 1006.1 |
| 20260504214538 | 54 | 115 | 0.0 | 2.6 | 0.00 | 0.00 | 0.00 | 79 | 1005.9 |
| 20260504213028 | 54 | 103 | 0.9 | 4.3 | 0.00 | 0.00 | 0.00 | 78 | 1005.8 |
| 20260504211523 | 53 | 155 | 1.7 | 6.1 | 0.00 | 0.00 | 0.00 | 81 | 1005.9 |
| 20260504210022 | 55 | 155 | 1.7 | 5.2 | 0.00 | 0.00 | 0.00 | 77 | 1005.8 |
| 20260504204521 | 55 | 125 | 1.7 | 3.5 | 0.00 | 0.00 | 0.00 | 78 | 1005.8 |
| 20260504203050 | 54 | 107 | 0.0 | 5.2 | 0.00 | 0.00 | 0.00 | 79 | 1005.8 |
| 20260504201550 | 57 | 156 | 2.6 | 5.2 | 0.00 | 0.00 | 0.00 | 73 | 1005.7 |
| 20260504200052 | 59 | 164 | 0.9 | 2.6 | 0.00 | 0.00 | 0.00 | 69 | 1005.7 |
| 20260504194539 | 58 | 290 | 0.0 | 2.6 | 0.00 | 0.00 | 0.00 | 65 | 1005.6 |
| 20260504193039 | 57 | 186 | 0.0 | 1.7 | 0.00 | 0.00 | 0.00 | 70 | 1005.8 |
| 20260504191534 | 55 | 276 | 0.0 | 2.6 | 0.00 | 0.00 | 0.00 | 73 | 1006.1 |
| 20260504190028 | 54 | 259 | 0.0 | 6.1 | 0.00 | 0.00 | 0.00 | 74 | 1006.3 |
| 20260504184535 | 55 | 114 | 0.9 | 7.0 | 0.00 | 0.00 | 0.00 | 71 | 1005.9 |
| 20260504183033 | 56 | 176 | 2.6 | 7.8 | 0.00 | 0.00 | 0.00 | 69 | 1006.0 |
| 20260504181526 | 55 | 179 | 1.7 | 8.7 | 0.00 | 0.00 | 0.00 | 70 | 1006.2 |
| 20260504180026 | 54 | 134 | 4.3 | 9.6 | 0.00 | 0.02 | 0.00 | 72 | 1006.3 |
| 20260504174524 | 54 | 141 | 4.3 | 9.6 | 0.00 | 0.02 | 0.00 | 72 | 1006.2 |
| 20260504173053 | 54 | 181 | 3.5 | 12.2 | 0.00 | 0.02 | 0.00 | 72 | 1006.1 |
| 20260504171554 | 56 | 132 | 7.8 | 15.6 | 0.00 | 0.02 | 0.00 | 68 | 1006.1 |
| 20260504081529 | 41 | 23 | 0.0 | 0.9 | 0.00 | 0.16 | 0.14 | 79 | 1008.2 |
| 20260504044511 | 41 | 269 | 0.0 | 0.9 | 0.00 | 0.19 | 0.14 | 80 | 1007.8 |
| 20260504043010 | 42 | 268 | 0.0 | 0.9 | 0.00 | 0.19 | 0.14 | 79 | 1007.9 |
| 20260504041503 | 42 | 278 | 0.0 | 1.7 | 0.00 | 0.19 | 0.14 | 80 | 1007.9 |
| 20260504040002 | 42 | 285 | 0.0 | 0.0 | 0.00 | 0.19 | 0.14 | 78 | 1007.8 |
| 20260504034501 | 44 | 285 | 0.0 | 3.5 | 0.00 | 0.19 | 0.14 | 73 | 1007.7 |
| 20260504033125 | 44 | 300 | 0.9 | 4.3 | 0.00 | 0.19 | 0.14 | 71 | 1007.6 |